EW0079 Weather Reports


Display with metric or nautical units.
time (UTC)temp
F
wind
direction
speed
MPH
gust
MPH
rain 1hr
in
rain 24hr
in
rain mn
in
humidity
%
barometer
mb
20260506223012 51 107 5.0 10.0 0.00 0.00 0.00 10 1013.9
20260506221512 52 107 7.0 13.0 0.00 0.00 0.00 18 1014.0
20260506220013 53 106 5.0 13.0 0.00 0.00 0.00 19 1014.0
20260506214512 53 103 6.0 12.0 0.00 0.00 0.00 17 1014.0
20260506213011 53 103 5.0 13.0 0.00 0.00 0.00 20 1013.9
20260506211511 54 106 6.0 12.0 0.00 0.00 0.00 27 1013.8
20260506210012 54 94 4.0 11.0 0.00 0.00 0.00 34 1013.8
20260506204511 55 100 3.0 8.0 0.00 0.00 0.00 37 1013.7
20260506203012 56 86 3.0 7.0 0.00 0.00 0.00 47 1013.5
20260506201512 57 81 3.0 8.0 0.00 0.00 0.00 60 1013.4
20260506200012 59 77 5.0 11.0 0.00 0.00 0.00 53 1013.4
20260506194511 59 66 4.0 10.0 0.00 0.00 0.00 45 1013.0
20260506193011 60 67 5.0 12.0 0.00 0.00 0.00 45 1013.0
20260506191512 60 66 5.0 10.0 0.00 0.00 0.00 45 1013.0
20260506190011 61 71 4.0 10.0 0.00 0.00 0.00 43 1012.9
20260506184512 62 72 4.0 9.0 0.00 0.00 0.00 41 1013.0
20260506183012 62 67 5.0 10.0 0.00 0.00 0.00 41 1012.9
20260506181512 63 66 5.0 9.0 0.00 0.00 0.00 39 1012.9
20260506180011 64 68 4.0 9.0 0.00 0.00 0.00 37 1013.0
20260506174512 64 44 5.0 9.0 0.00 0.00 0.00 36 1012.9
20260506173012 64 43 6.0 12.0 0.00 0.00 0.00 36 1012.9
20260506171512 65 359 2.0 7.0 0.00 0.00 0.00 33 1013.0
20260506170011 66 214 2.0 7.0 0.00 0.00 0.00 25 1013.1
20260506164512 65 250 4.0 7.0 0.00 0.00 0.00 26 1013.1
20260506163011 67 151 5.0 9.0 0.00 0.00 0.00 23 1013.1
20260506161512 67 205 2.0 17.0 0.00 0.00 0.00 23 1013.0
20260506160012 67 169 2.0 7.0 0.00 0.00 0.00 20 1013.1
20260506154511 67 216 4.0 10.0 0.00 0.00 0.00 21 1013.3
20260506153012 67 116 6.0 13.0 0.00 0.00 0.00 20 1013.3
20260506150011 67 127 2.0 9.0 0.00 0.00 0.00 21 1013.4
20260506144511 67 158 3.0 8.0 0.00 0.00 0.00 22 1013.6
20260506143012 67 31 2.0 6.0 0.00 0.00 0.00 23 1013.7
20260506141512 66 192 3.0 6.0 0.00 0.00 0.00 23 1013.9
20260506134512 65 217 4.0 12.0 0.00 0.00 0.00 27 1014.2
20260506133012 65 234 4.0 14.0 0.00 0.00 0.00 26 1014.3
20260506131512 65 192 4.0 11.0 0.00 0.00 0.00 25 1014.3
20260506130012 64 258 2.0 5.0 0.00 0.00 0.00 24 1014.5
20260506124512 64 163 4.0 22.0 0.00 0.00 0.00 27 1014.7
20260506123012 63 221 4.0 9.0 0.00 0.00 0.00 30 1014.7
20260506121512 62 234 3.0 10.0 0.00 0.00 0.00 33 1015.0
20260506120012 62 203 3.0 14.0 0.00 0.00 0.00 33 1014.9
20260506113012 61 244 3.0 7.0 0.00 0.00 0.00 37 1015.3
20260506111512 61 164 2.0 7.0 0.00 0.00 0.00 37 1015.4
20260506110012 60 238 2.0 6.0 0.00 0.00 0.00 36 1015.5
20260506104512 60 243 2.0 9.0 0.00 0.00 0.00 36 1015.6
20260506103012 60 70 1.0 9.0 0.00 0.00 0.00 35 1015.5
20260506101512 60 150 2.0 7.0 0.00 0.00 0.00 36 1015.8
20260506100012 58 247 1.0 6.0 0.00 0.00 0.00 40 1015.7
20260506094512 59 146 2.0 3.0 0.00 0.00 0.00 38 1015.8
20260506093012 59 159 2.0 8.0 0.00 0.00 0.00 39 1015.7
20260506091512 58 28 1.0 4.0 0.00 0.00 0.00 41 1015.7
20260506084512 57 130 1.0 6.0 0.00 0.00 0.00 42 1015.4
20260506083012 56 226 1.0 4.0 0.00 0.00 0.00 43 1015.4
20260506081512 57 175 0.0 3.0 0.00 0.00 0.00 47 1015.4
20260506073012 55 115 0.0 2.0 0.00 0.00 0.00 53 1015.6
20260506061512 46 0 0.0 0.0 0.00 0.00 0.00 63 1015.1
20260506044512 44 0 0.0 0.0 0.00 0.00 0.00 62 1014.5
20260506041512 45 0 0.0 0.0 0.00 0.00 0.00 62 1014.9
20260506034512 45 241 0.0 1.0 0.00 0.00 0.00 62 1015.0
20260506033011 45 0 0.0 0.0 0.00 0.00 0.00 62 1015.2
20260506030012 46 0 0.0 0.0 0.00 0.00 0.00 62 1015.3
20260506024513 46 0 0.0 0.0 0.00 0.00 0.00 62 1015.2
20260506021512 45 0 0.0 0.0 0.00 0.00 0.00 61 1015.2
20260506020012 43 0 0.0 0.0 0.00 0.00 0.00 59 1015.3
20260506014511 44 0 0.0 0.0 0.00 0.00 0.00 61 1015.3
20260506013011 45 0 0.0 0.0 0.00 0.00 0.00 62 1015.4
20260506011512 45 0 0.0 0.0 0.00 0.00 0.00 62 1015.5
20260506010012 46 0 0.0 0.0 0.00 0.00 0.00 63 1015.7
20260506004511 50 290 2.0 3.0 0.00 0.00 0.00 58 1015.7
20260506003012 50 318 1.0 4.0 0.00 0.00 0.00 59 1015.9
20260506001512 49 315 1.0 3.0 0.00 0.00 0.00 59 1015.9
20260505233011 50 314 1.0 3.0 0.00 0.00 0.00 58 1016.4
20260505230012 50 315 2.0 4.0 0.00 0.00 0.00 57 1016.3
20260505224512 50 312 2.0 4.0 0.00 0.00 0.00 57 1016.3